• In Uzbekistan
  • List of Countries
  • For 7 days
  • Water Temperature
  • Satellite Maps
  • Weather Map
  • Weather Widgets
  • user-avatar
    Login

    Hourly Weather Megri

    Today, 24 November, Friday

    Time Temperature Precipitation Wind Pressure Humidity
    00:00 0°C° 0 mm 1 mps 618 mmHg 56%
    01:00 0°C° 0.1 mm 1 mps 618 mmHg 58%
    02:00 -1°C° 0.1 mm 1 mps 618 mmHg 60%
    03:00 -1°C° 0 mm 1 mps 618 mmHg 62%
    04:00 -1°C° 0.3 mm 1 mps 618 mmHg 65%
    05:00 -1°C° 0.3 mm 1 mps 618 mmHg 68%
    06:00 -2°C° 0.3 mm 1 mps 618 mmHg 72%
    07:00 -1°C° 0.4 mm 1 mps 618 mmHg 71%
    08:00 -3°C° 0.4 mm 2 mps 618 mmHg 70%
    09:00 -3°C° 0.4 mm 2 mps 618 mmHg 70%
    10:00 -3°C° 0.4 mm 2 mps 619 mmHg 69%
    11:00 -4°C° 0.4 mm 3 mps 619 mmHg 69%
    12:00 -2°C° 0.4 mm 3 mps 619 mmHg 68%
    13:00 -2°C° 0.3 mm 3 mps 619 mmHg 68%
    14:00 -4°C° 0.3 mm 3 mps 619 mmHg 67%
    15:00 -4°C° 0.3 mm 3 mps 619 mmHg 66%
    16:00 -4°C° 0 mm 2 mps 619 mmHg 65%
    17:00 -5°C° 0 mm 2 mps 619 mmHg 64%
    18:00 -4°C° 0 mm 1 mps 619 mmHg 63%
    19:00 -6°C° 0 mm 2 mps 620 mmHg 61%
    20:00 -6°C° 0 mm 2 mps 620 mmHg 60%
    21:00 -6°C° 0 mm 2 mps 620 mmHg 58%
    22:00 -6°C° 0 mm 2 mps 620 mmHg 60%
    23:00 -6°C° 0 mm 2 mps 620 mmHg 62%

    Tomorrow, 25 November, Saturday

    Time Temperature Precipitation Wind Pressure Humidity
    00:00 -6°C° 0 mm 2 mps 621 mmHg 64%
    01:00 -6°C° 0 mm 2 mps 621 mmHg 67%
    02:00 -6°C° 0 mm 2 mps 621 mmHg 70%
    03:00 -7°C° 0 mm 3 mps 621 mmHg 73%
    04:00 -6°C° 0 mm 2 mps 622 mmHg 74%
    05:00 -6°C° 0 mm 2 mps 622 mmHg 75%
    06:00 -6°C° 0 mm 2 mps 622 mmHg 75%
    07:00 -6°C° 0.1 mm 3 mps 623 mmHg 72%
    08:00 -6°C° 0.1 mm 3 mps 623 mmHg 68%
    09:00 -5°C° 0.1 mm 3 mps 624 mmHg 65%
    10:00 -4°C° 0 mm 3 mps 624 mmHg 61%
    11:00 -4°C° 0 mm 4 mps 624 mmHg 58%
    12:00 -3°C° 0 mm 4 mps 624 mmHg 55%
    13:00 -3°C° 0 mm 4 mps 624 mmHg 54%
    14:00 -2°C° 0 mm 3 mps 624 mmHg 52%
    15:00 -2°C° 0 mm 3 mps 624 mmHg 51%
    16:00 -3°C° 0 mm 2 mps 624 mmHg 52%
    17:00 -5°C° 0 mm 2 mps 625 mmHg 53%
    18:00 -4°C° 0 mm 1 mps 625 mmHg 54%
    19:00 -4°C° 0 mm 1 mps 625 mmHg 53%
    20:00 -4°C° 0 mm 1 mps 625 mmHg 53%
    21:00 -4°C° 0 mm 1 mps 625 mmHg 52%
    22:00 -4°C° 0 mm 1 mps 625 mmHg 52%
    23:00 -4°C° 0 mm 1 mps 625 mmHg 51%

    Day after tomorrow, 26 November, Sunday

    Time Temperature Precipitation Wind Pressure Humidity
    00:00 -4°C° 0 mm 1 mps 625 mmHg 51%
    01:00 -4°C° 0 mm 1 mps 625 mmHg 51%
    02:00 -4°C° 0 mm 1 mps 625 mmHg 51%
    03:00 -4°C° 0 mm 1 mps 624 mmHg 52%
    04:00 -4°C° 0 mm 1 mps 624 mmHg 52%
    05:00 -4°C° 0 mm 1 mps 624 mmHg 51%
    06:00 -4°C° 0 mm 1 mps 624 mmHg 51%
    07:00 -3°C° 0 mm 1 mps 625 mmHg 50%
    08:00 -1°C° 0 mm 1 mps 625 mmHg 48%
    09:00 0°C° 0 mm 1 mps 626 mmHg 47%
    10:00 +1°C° 0 mm 1 mps 625 mmHg 44%
    11:00 +2°C° 0 mm 1 mps 625 mmHg 42%
    12:00 +3°C° 0 mm 1 mps 625 mmHg 40%
    13:00 +3°C° 0 mm 1 mps 625 mmHg 41%
    14:00 +3°C° 0 mm 1 mps 624 mmHg 42%
    15:00 +3°C° 0 mm 1 mps 624 mmHg 43%
    16:00 +2°C° 0 mm 1 mps 623 mmHg 45%
    17:00 +1°C° 0 mm 1 mps 623 mmHg 48%
    18:00 0°C° 0 mm 1 mps 623 mmHg 51%
    19:00 0°C° 0 mm 1 mps 623 mmHg 51%
    20:00 -1°C° 0 mm 1 mps 623 mmHg 51%
    21:00 -1°C° 0 mm 1 mps 623 mmHg 51%
    22:00 -1°C° 0 mm 1 mps 622 mmHg 51%
    23:00 -1°C° 0 mm 1 mps 622 mmHg 50%

    27 November, Monday

    Time Temperature Precipitation Wind Pressure Humidity
    00:00 -1°C° 0 mm 1 mps 622 mmHg 49%
    01:00 -1°C° 0 mm 1 mps 622 mmHg 49%
    02:00 -1°C° 0 mm 1 mps 622 mmHg 49%
    03:00 -2°C° 0 mm 1 mps 622 mmHg 48%
    04:00 -2°C° 0 mm 1 mps 621 mmHg 49%
    05:00 -2°C° 0 mm 1 mps 621 mmHg 49%
    06:00 -2°C° 0 mm 1 mps 621 mmHg 50%
    07:00 -1°C° 0 mm 1 mps 622 mmHg 48%
    08:00 +1°C° 0 mm 1 mps 623 mmHg 47%
    09:00 +2°C° 0 mm 1 mps 623 mmHg 45%
    10:00 +3°C° 0 mm 1 mps 623 mmHg 44%
    11:00 +3°C° 0 mm 2 mps 623 mmHg 43%
    12:00 +4°C° 0 mm 2 mps 623 mmHg 42%
    13:00 +4°C° 0 mm 2 mps 622 mmHg 43%
    14:00 +4°C° 0 mm 2 mps 622 mmHg 43%
    15:00 +4°C° 0 mm 2 mps 622 mmHg 43%
    16:00 +4°C° 0 mm 1 mps 621 mmHg 46%
    17:00 +3°C° 0 mm 1 mps 621 mmHg 48%
    18:00 +1°C° 0 mm 1 mps 621 mmHg 51%
    19:00 +1°C° 0 mm 1 mps 621 mmHg 51%
    20:00 +1°C° 0 mm 1 mps 621 mmHg 52%
    21:00 +1°C° 0 mm 1 mps 621 mmHg 52%
    22:00 0°C° 0 mm 1 mps 621 mmHg 53%
    23:00 0°C° 0 mm 1 mps 621 mmHg 54%

    28 November, Tuesday

    Time Temperature Precipitation Wind Pressure Humidity
    00:00 0°C° 0 mm 1 mps 621 mmHg 55%
    01:00 0°C° 0 mm 1 mps 621 mmHg 56%
    02:00 0°C° 0 mm 1 mps 621 mmHg 57%
    03:00 0°C° 0 mm 1 mps 621 mmHg 58%
    04:00 0°C° 0 mm 1 mps 621 mmHg 58%
    05:00 -1°C° 0 mm 1 mps 621 mmHg 59%
    06:00 -1°C° 0 mm 1 mps 621 mmHg 60%
    07:00 +1°C° 0 mm 1 mps 621 mmHg 58%
    08:00 +2°C° 0 mm 1 mps 622 mmHg 55%
    09:00 +3°C° 0 mm 1 mps 623 mmHg 53%
    10:00 +3°C° 0 mm 2 mps 623 mmHg 53%
    11:00 +4°C° 0 mm 2 mps 623 mmHg 53%
    12:00 +5°C° 0 mm 2 mps 622 mmHg 53%
    13:00 +5°C° 0 mm 2 mps 622 mmHg 52%
    14:00 +5°C° 0 mm 2 mps 622 mmHg 52%
    15:00 +5°C° 0 mm 2 mps 622 mmHg 51%
    16:00 +4°C° 0 mm 2 mps 622 mmHg 55%
    17:00 +4°C° 0 mm 1 mps 622 mmHg 58%
    18:00 +2°C° 0 mm 1 mps 621 mmHg 62%
    19:00 +2°C° 0 mm 1 mps 622 mmHg 62%
    20:00 +2°C° 0 mm 1 mps 622 mmHg 63%
    21:00 +1°C° 0 mm 2 mps 622 mmHg 64%
    22:00 +1°C° 0 mm 2 mps 622 mmHg 64%
    23:00 +1°C° 0 mm 2 mps 622 mmHg 64%

    29 November, Wednesday

    Time Temperature Precipitation Wind Pressure Humidity
    00:00 +1°C° 0 mm 2 mps 622 mmHg 65%
    01:00 +1°C° 0 mm 2 mps 622 mmHg 66%
    02:00 +1°C° 0 mm 1 mps 622 mmHg 66%
    03:00 +1°C° 0 mm 1 mps 621 mmHg 67%
    04:00 +1°C° 0 mm 1 mps 621 mmHg 69%
    05:00 +1°C° 0 mm 1 mps 621 mmHg 71%
    06:00 +1°C° 0 mm 1 mps 621 mmHg 73%
    07:00 +2°C° 0 mm 1 mps 622 mmHg 70%
    08:00 +4°C° 0 mm 1 mps 623 mmHg 67%
    09:00 +5°C° 0 mm 1 mps 623 mmHg 64%
    10:00 +5°C° 0 mm 2 mps 623 mmHg 61%
    11:00 +6°C° 0 mm 2 mps 623 mmHg 59%
    12:00 +7°C° 0 mm 2 mps 622 mmHg 57%
    13:00 +7°C° 0 mm 2 mps 622 mmHg 55%
    14:00 +7°C° 0 mm 2 mps 622 mmHg 53%
    15:00 +7°C° 0 mm 2 mps 622 mmHg 52%
    16:00 +6°C° 0 mm 2 mps 622 mmHg 55%
    17:00 +6°C° 0 mm 1 mps 622 mmHg 57%
    18:00 +5°C° 0 mm 1 mps 621 mmHg 60%
    19:00 +5°C° 0 mm 1 mps 621 mmHg 60%
    20:00 +5°C° 0 mm 1 mps 621 mmHg 60%
    21:00 +5°C° 0 mm 1 mps 621 mmHg 60%
    22:00 +4°C° 0 mm 1 mps 621 mmHg 60%
    23:00 +4°C° 0 mm 1 mps 621 mmHg 59%
    Show more